Location: �clusier
(49.9361°N, 2.7869°E)
Time: 22:35:18
(UTC+00:00)

Okean 2 - Pass Details

Date: 16 June 2021
Orbit: 560 x 575 km, 82.5° (Epoch: 02 August)

Event Time Altitude Azimuth Distance (km) Brightness Sun altitude
Rises 20:40:54 0° 195° (SSW) 2,748 6.6 -5.6°
Reaches altitude 10° 20:43:05 10° 198° (SSW) 1,854 5.7 -5.8°
Maximum altitude 20:47:09 68° 281° (W) 610 3.8 -6.3°
Drops below altitude 10° 20:51:15 10° 6° (N) 1,864 6.7 -6.7°
Sets 20:53:27 0° 9° (N) 2,765 7.6 -6.9°
